Regional Weather Roundup
Issued by NWS State College, PA

Home | Current Version | Previous Version | Graphics & Text | Print | Product List | Glossary Off
Versions: 1 2 3 4 5 6 7 8 9 10 11 12 13 14 15 16 17 18 19 20 21 22 23 24 25 26 27 28 29 30 31 32 33 34 35 36 37 38 39 40 41 42 43 44 45 46 47 48 49 50

000
ASUS41 KCTP 012003
RWRCTP

REGIONAL WEATHER ROUNDUP
NATIONAL WEATHER SERVICE STATE COLLEGE PA
400 PM EDT FRI AUG 01 2014

Note: "fair" indicates few or no clouds below 12,000 feet with no
significant weather and/or obstructions to visibility.

* = STATION THAT DOES NOT REPORT PRECIPITATION /E.G. RAIN...SNOW...ETC/
    THUNDER OR FOG.

PAZ002>004-007>009-013>016-020>023-029>032-012100-
WESTERN PENNSYLVANIA

CITY           SKY/WX    TMP DP  RH WIND       PRES   REMARKS
ERIE           PTSUNNY   79  59  50 NW6       30.11F
MEADVILLE      MOSUNNY   79  59  50 SW7       30.14F
FRANKLIN*      MOSUNNY   81  61  50 SE3       30.16F
NEW CASTLE     FAIR      84  61  45 CALM      30.12F
BEAVER COUNTY  MOSUNNY   82  57  42 SW5       30.13F
BUTLER*        SUNNY     81  61  50 SE8       30.14F
PITTSBURGH INT MOSUNNY   82  56  40 S6        30.11F
PITTSBURGH     MOSUNNY   81  59  47 CALM      30.11F
INDIANA*       PTSUNNY   79  61  53 S7        30.18S
LATROBE        PTSUNNY   79  64  61 SE7       30.14F
WASHINGTON CO* SUNNY     81  57  44 CALM      30.12F
$$

PAZ004>006-010>012-017>019-024>028-033>037-041-042-045-046-049>053-012100-
CENTRAL PENNSYLVANIA

CITY           SKY/WX    TMP DP  RH WIND       PRES   REMARKS
BRADFORD       MOSUNNY   76  55  48 SE5       30.17F
DUBOIS         PTSUNNY   80  56  43 S6        30.15F
CLEARFIELD     PTSUNNY   79  60  52 VRB5      30.16F
JOHNSTOWN      PTSUNNY   73  59  61 SE9       30.18F
ALTOONA        PTSUNNY   77  62  59 S8        30.17F
STATE COLLEGE  PTSUNNY   79  63  57 S5        30.16F
WILLIAMSPORT   PTSUNNY   82  65  56 SE6       30.12F
SELINSGROVE    PTSUNNY   82  66  58 VRB3      30.15S
FT INDIANTOWN  DRIZZLE   68  67  94 SW7       30.17S
CAPITAL CITY   CLOUDY    73  63  70 W3        30.17F
HARRISBURG     CLOUDY    75  65  70 NW8       30.16
YORK           CLOUDY    76  63  64 SW8       30.17S
$$

PAZ038>040-043-044-047-048-054-055-060>062-067>071-012100-
EASTERN PENNSYLVANIA

CITY           SKY/WX    TMP DP  RH WIND       PRES   REMARKS
SCRANTON       PTSUNNY   76  66  71 N7        30.16F
MOUNT POCONO   CLOUDY    77  62  59 S9        30.22S
ALLENTOWN      CLOUDY    81  63  54 S8        30.16F
QUAKERTOWN*    CLOUDY    81  66  61 SE7       30.18F
READING        CLOUDY    83  65  54 S12       30.14S
LANCASTER      HVY RAIN  71  65  81 SW7       30.17R VSB 1
COATESVILLE    CLOUDY    73  72  94 S6        30.19S
POTTSTOWN      CLOUDY    80  65  59 S5        30.17F
BLUE BELL      CLOUDY    77  68  73 SE16G25   30.18R
DOYLESTOWN     CLOUDY    71  66  84 MISG      30.19R
WILLOW GROVE   NOT AVBL
NORTH PHILA    LGT RAIN  74  65  73 S7        30.21S
PHILADELPHIA   HVY RAIN  70  66  87 S13       30.20S FOG
$$



USA.gov is the U.S. government's official web portal to all federal, state and local government web resources and services.